Time,TemperatureF,DewpointF,PressureIn,WindDirection,WindDirectionDegrees,WindSpeedMPH,WindSpeedGustMPH,Humidity,HourlyPrecipIn,Conditions,Clouds,dailyrainin,SolarRadiationWatts/m^2,SoftwareType,DateUTC
2013-05-15 00:00:00,72.7,58.0,29.94,West,279,2.0,2.0,60,0.00,,,0.00,0,Wunderground v.1.15,2013-05-15 05:00:00,
2013-05-15 00:05:00,72.6,57.9,29.94,WNW,293,2.0,5.0,60,0.00,,,0.00,0,Wunderground v.1.15,2013-05-15 05:05:00,
2013-05-15 00:11:00,72.5,57.8,29.94,WNW,288,2.0,3.0,60,0.00,,,0.00,0,Wunderground v.1.15,2013-05-15 05:11:00,
2013-05-15 00:17:00,72.4,57.7,29.94,West,277,2.0,3.0,60,0.00,,,0.00,0,Wunderground v.1.15,2013-05-15 05:17:00,
2013-05-15 00:23:00,72.3,57.6,29.94,WNW,285,2.0,6.0,60,0.00,,,0.00,0,Wunderground v.1.15,2013-05-15 05:23:00,
2013-05-15 00:29:00,72.3,58.1,29.94,West,267,2.0,6.0,61,0.00,,,0.00,0,Wunderground v.1.15,2013-05-15 05:29:00,
2013-05-15 00:35:00,72.3,57.6,29.94,North,349,2.0,8.0,60,0.00,,,0.00,0,Wunderground v.1.15,2013-05-15 05:35:00,
2013-05-15 00:41:00,72.2,57.5,29.94,NE,40,2.0,8.0,60,0.00,,,0.00,0,Wunderground v.1.15,2013-05-15 05:41:00,
2013-05-15 00:47:00,72.2,57.5,29.94,NW,324,2.0,8.0,60,0.00,,,0.00,0,Wunderground v.1.15,2013-05-15 05:47:00,
2013-05-15 00:52:00,72.2,57.5,29.94,West,279,3.0,8.0,60,0.00,,,0.00,0,Wunderground v.1.15,2013-05-15 05:52:00,
2013-05-15 00:58:00,72.0,57.4,29.94,NW,314,2.0,8.0,60,0.00,,,0.00,0,Wunderground v.1.15,2013-05-15 05:58:00,
2013-05-15 01:04:00,72.0,57.4,29.95,WNW,294,2.0,4.0,60,0.00,,,0.00,0,Wunderground v.1.15,2013-05-15 06:04:00,
2013-05-15 01:10:00,71.9,57.3,29.95,SSW,207,2.0,2.0,60,0.00,,,0.00,0,Wunderground v.1.15,2013-05-15 06:10:00,
2013-05-15 01:16:00,71.8,57.2,29.94,WSW,248,3.0,5.0,60,0.00,,,0.00,0,Wunderground v.1.15,2013-05-15 06:16:00,
2013-05-15 01:22:00,71.7,57.1,29.95,SSW,207,2.0,2.0,60,0.00,,,0.00,0,Wunderground v.1.15,2013-05-15 06:22:00,
2013-05-15 01:28:00,71.5,57.3,29.95,WNW,283,2.0,3.0,61,0.00,,,0.00,0,Wunderground v.1.15,2013-05-15 06:28:00,
2013-05-15 01:33:00,71.4,57.2,29.95,WNW,299,2.0,9.0,61,0.00,,,0.00,0,Wunderground v.1.15,2013-05-15 06:33:00,
2013-05-15 01:39:00,71.2,57.1,29.95,WNW,300,2.0,9.0,61,0.00,,,0.00,0,Wunderground v.1.15,2013-05-15 06:39:00,
2013-05-15 01:45:00,71.0,56.9,29.95,NW,308,2.0,9.0,61,0.00,,,0.00,0,Wunderground v.1.15,2013-05-15 06:45:00,
2013-05-15 01:51:00,71.0,56.9,29.95,NW,307,2.0,9.0,61,0.00,,,0.00,0,Wunderground v.1.15,2013-05-15 06:51:00,
2013-05-15 01:57:00,70.8,57.1,29.95,NW,304,2.0,9.0,62,0.00,,,0.00,0,Wunderground v.1.15,2013-05-15 06:57:00,
2013-05-15 02:03:00,70.7,57.0,29.95,NW,320,2.0,6.0,62,0.00,,,0.00,0,Wunderground v.1.15,2013-05-15 07:03:00,
2013-05-15 02:09:00,70.6,56.9,29.95,NW,325,2.0,6.0,62,0.00,,,0.00,0,Wunderground v.1.15,2013-05-15 07:09:00,
2013-05-15 02:15:00,70.5,56.9,29.95,NW,319,2.0,4.0,62,0.00,,,0.00,0,Wunderground v.1.15,2013-05-15 07:15:00,
2013-05-15 02:21:00,70.4,56.8,29.96,WNW,303,2.0,2.0,62,0.00,,,0.00,0,Wunderground v.1.15,2013-05-15 07:21:00,
2013-05-15 02:26:00,70.1,56.5,29.96,NW,315,1.0,2.0,62,0.00,,,0.00,0,Wunderground v.1.15,2013-05-15 07:26:00,
2013-05-15 02:32:00,69.9,56.7,29.96,West,268,1.0,7.0,63,0.00,,,0.00,0,Wunderground v.1.15,2013-05-15 07:32:00,
2013-05-15 02:38:00,69.7,56.5,29.96,NW,306,1.0,7.0,63,0.00,,,0.00,0,Wunderground v.1.15,2013-05-15 07:38:00,
2013-05-15 02:44:00,69.5,56.8,29.96,NNW,336,1.0,7.0,64,0.00,,,0.00,0,Wunderground v.1.15,2013-05-15 07:44:00,
2013-05-15 02:49:00,69.3,56.6,29.96,WNW,301,1.0,7.0,64,0.00,,,0.00,0,Wunderground v.1.15,2013-05-15 07:49:00,
2013-05-15 02:55:00,69.1,56.4,29.96,WNW,296,1.0,7.0,64,0.00,,,0.00,0,Wunderground v.1.15,2013-05-15 07:55:00,
2013-05-15 03:00:00,68.9,56.6,29.96,NW,316,1.0,1.0,65,0.00,,,0.00,0,Wunderground v.1.15,2013-05-15 08:00:00,
2013-05-15 03:06:00,68.7,56.5,29.96,NNW,334,1.0,2.0,65,0.00,,,0.00,0,Wunderground v.1.15,2013-05-15 08:06:00,
2013-05-15 03:12:00,68.5,56.7,29.96,WNW,284,1.0,5.0,66,0.00,,,0.00,0,Wunderground v.1.15,2013-05-15 08:12:00,
2013-05-15 03:18:00,68.3,56.5,29.96,West,266,1.0,5.0,66,0.00,,,0.00,0,Wunderground v.1.15,2013-05-15 08:18:00,
2013-05-15 03:23:00,68.1,56.3,29.96,ENE,77,1.0,1.0,66,0.00,,,0.00,0,Wunderground v.1.15,2013-05-15 08:23:00,